TimeEDT,TemperatureF,Dew PointF,Humidity,Sea Level PressureIn,VisibilityMPH,Wind Direction,Wind SpeedMPH,Gust SpeedMPH,PrecipitationIn,Events,Conditions,WindDirDegrees,DateUTC
12:53 AM,71.1,70.0,96,29.94,10.0,Calm,Calm,-,N/A,,Clear,0,2013-11-02 04:53:00
1:53 AM,70.0,69.1,97,29.93,10.0,Calm,Calm,-,N/A,,Clear,0,2013-11-02 05:53:00
2:53 AM,71.1,71.1,100,29.91,1.8,Calm,Calm,-,N/A,,Clear,0,2013-11-02 06:53:00
2:59 AM,71.6,71.6,100,29.91,3.0,Calm,Calm,-,N/A,,Clear,0,2013-11-02 06:59:00
3:07 AM,69.8,69.8,100,29.91,1.8,Calm,Calm,-,N/A,,Clear,0,2013-11-02 07:07:00
3:21 AM,69.8,69.8,100,29.91,0.5,Calm,Calm,-,N/A,Fog,Fog,0,2013-11-02 07:21:00
3:36 AM,69.8,69.8,100,29.91,1.2,Calm,Calm,-,N/A,,Partly Cloudy,0,2013-11-02 07:36:00
3:53 AM,69.1,69.1,100,29.91,0.8,Calm,Calm,-,N/A,,Mostly Cloudy,0,2013-11-02 07:53:00
4:07 AM,69.8,69.8,100,29.90,0.2,Calm,Calm,-,N/A,Fog,Fog,0,2013-11-02 08:07:00
4:33 AM,69.8,69.8,100,29.90,0.5,Calm,Calm,-,N/A,Fog,Fog,0,2013-11-02 08:33:00
4:48 AM,68.0,68.0,100,29.90,0.5,Calm,Calm,-,N/A,Fog,Fog,0,2013-11-02 08:48:00
4:53 AM,69.1,68.0,96,29.90,0.8,Calm,Calm,-,N/A,,Clear,0,2013-11-02 08:53:00
5:04 AM,69.8,69.8,100,29.89,2.0,Calm,Calm,-,N/A,,Clear,0,2013-11-02 09:04:00
5:16 AM,69.8,69.8,100,29.89,1.0,Calm,Calm,-,N/A,,Clear,0,2013-11-02 09:16:00
5:40 AM,66.2,66.2,100,29.89,3.0,Calm,Calm,-,N/A,,Clear,0,2013-11-02 09:40:00
5:46 AM,66.2,66.2,100,29.89,2.5,Calm,Calm,-,N/A,,Partly Cloudy,0,2013-11-02 09:46:00
5:49 AM,66.2,66.2,100,29.89,1.0,Calm,Calm,-,N/A,,Mist,0,2013-11-02 09:49:00
5:53 AM,66.0,66.0,100,29.89,1.2,Calm,Calm,-,N/A,,Scattered Clouds,0,2013-11-02 09:53:00
6:01 AM,66.2,66.2,100,29.89,1.5,Calm,Calm,-,N/A,,Mostly Cloudy,0,2013-11-02 10:01:00
6:03 AM,66.2,66.2,100,29.89,0.8,Calm,Calm,-,N/A,,Mist,0,2013-11-02 10:03:00
6:35 AM,66.2,66.2,100,29.89,0.2,Calm,Calm,-,N/A,Fog,Fog,0,2013-11-02 10:35:00
6:53 AM,66.9,66.9,100,29.89,0.2,Calm,Calm,-,N/A,Fog,Fog,0,2013-11-02 10:53:00
7:01 AM,66.2,66.2,100,29.90,1.2,Calm,Calm,-,N/A,,Overcast,0,2013-11-02 11:01:00
7:08 AM,68.0,68.0,100,29.90,10.0,Calm,Calm,-,N/A,,Scattered Clouds,0,2013-11-02 11:08:00
7:53 AM,69.1,69.1,100,29.91,10.0,Calm,Calm,-,N/A,,Scattered Clouds,0,2013-11-02 11:53:00
8:53 AM,73.9,73.0,97,29.92,10.0,Calm,Calm,-,N/A,,Scattered Clouds,0,2013-11-02 12:53:00
9:53 AM,79.0,73.0,82,29.94,10.0,Variable,3.5,-,N/A,,Scattered Clouds,0,2013-11-02 13:53:00
10:53 AM,82.0,72.0,71,29.94,10.0,West,8.1,-,N/A,,Partly Cloudy,260,2013-11-02 14:53:00
11:53 AM,84.9,69.1,59,29.93,10.0,SW,11.5,19.6,N/A,,Partly Cloudy,230,2013-11-02 15:53:00
12:53 PM,86.0,66.0,51,29.91,10.0,West,12.7,-,N/A,,Clear,260,2013-11-02 16:53:00
1:53 PM,87.1,66.0,49,29.88,10.0,WSW,9.2,-,N/A,,Clear,240,2013-11-02 17:53:00
2:53 PM,88.0,64.9,46,29.85,10.0,WSW,5.8,-,N/A,,Partly Cloudy,250,2013-11-02 18:53:00
3:53 PM,89.1,64.0,43,29.84,10.0,NW,5.8,-,N/A,,Clear,320,2013-11-02 19:53:00
4:53 PM,87.1,64.0,46,29.84,10.0,West,12.7,-,N/A,,Clear,270,2013-11-02 20:53:00
5:53 PM,82.9,64.9,54,29.85,10.0,West,9.2,-,N/A,,Clear,270,2013-11-02 21:53:00
6:53 PM,79.0,70.0,74,29.87,10.0,West,8.1,-,N/A,,Partly Cloudy,260,2013-11-02 22:53:00
7:53 PM,73.9,70.0,87,29.90,10.0,West,5.8,-,N/A,,Clear,260,2013-11-02 23:53:00
8:53 PM,75.0,71.1,87,29.91,10.0,West,4.6,-,N/A,,Clear,260,2013-11-03 00:53:00
9:53 PM,75.9,72.0,87,29.92,10.0,Calm,Calm,-,N/A,,Clear,0,2013-11-03 01:53:00
10:53 PM,71.1,70.0,96,29.92,10.0,Calm,Calm,-,N/A,,Clear,0,2013-11-03 02:53:00
11:35 PM,75.2,73.4,94,29.92,10.0,NNW,10.4,-,N/A,,Mostly Cloudy,340,2013-11-03 03:35:00
11:46 PM,75.2,71.6,89,29.92,10.0,NNW,11.5,-,N/A,,Scattered Clouds,340,2013-11-03 03:46:00
11:53 PM,75.0,70.0,84,29.92,10.0,North,8.1,-,N/A,,Partly Cloudy,350,2013-11-03 03:53:00